Flag for Italy Weather past 2 weeks in Trieste, Italy

Now
71 °F

Scattered clouds.


Feels Like: 74 °F
Forecast: 59 / 70 °F
Wind: 3 mph from Northwest

Location: Trieste

Current Time: Sep 30, 2014 at 3:06:05 PM

Latest Report: Sep 30, 2014 at 2:00 PM


Visibility: 6 mi

Pressure: 30.30 "Hg

Humidity: 71%

Dew point: 61 °F

Location of TriesteLocation

Historic Weather in Trieste — Graph

°F

Trieste temperature yesterday

Maximum temperature yesterday: 73 °F (at 12:00 PM)
Minimum temperature yesterday: 59 °F (at 3:00 AM)
Average temperature yesterday: 65 °F

Past Weeks' High & Low Weather Summary

 TemperatureHumidityPressure
High78 °F (Sep 16, 2:00 PM)97% (Sep 20, 12:00 AM)30.37 "Hg (Sep 20, 12:00 AM)
Low54 °F (Sep 23, 6:00 AM)37% (Sep 23, 6:00 PM)29.73 "Hg (Sep 22, 5:00 PM)
Average67 °F71%30.08 "Hg
* Reported Sep 15 1:00 PM — Sep 30 1:00 PM, Trieste, Weather by CustomWeather, © 2014

Note: Actual official high and low records may vary slightly from our data, if they occured in-between our weather recording intervals... More about our weather records

Advertising

Trieste weather history for previous 24 hours

 ConditionsComfort  
Time TempWeatherWind HumidityBarometerVisibility
1:00 PM
Sep 30
71 °FPartly sunny.2 mph65%30.32 "Hg12 mi
12:00 PM72 °FScattered clouds.3 mph63%30.31 "Hg6 mi
11:00 AM72 °FScattered clouds.3 mph63%30.31 "Hg6 mi
10:00 AM69 °FScattered clouds.1 mph70%30.30 "Hg6 mi
9:00 AM65 °FPartly sunny.1 mph80%30.30 "Hg6 mi
8:00 AM63 °FPartly sunny.1 mph89%30.29 "Hg6 mi
7:00 AM63 °FOvercast.1 mph90%30.29 "Hg6 mi
6:00 AM62 °FPassing clouds.2 mph94%30.30 "Hg6 mi
5:00 AM62 °FPassing clouds.1 mph95%30.30 "Hg12 mi
4:00 AM62 °FClear.2 mph96%30.31 "Hg12 mi
3:00 AM61 °FClear.5 mph96%30.31 "Hg12 mi
2:00 AM60 °FClear.2 mph97%30.32 "Hg12 mi
1:00 AM62 °FClear.5 mph93%30.32 "Hg12 mi
12:00 AM62 °FClear.2 mph90%30.32 "Hg12 mi
11:00 PM
Sep 29
63 °FClear.3 mph92%30.33 "Hg12 mi
10:00 PM63 °FClear.2 mph95%30.34 "Hg12 mi
9:00 PM64 °FClear.6 mph91%30.34 "Hg12 mi
8:00 PM65 °FPassing clouds.5 mph88%30.33 "Hg12 mi
7:00 PM67 °FPassing clouds.3 mph83%30.34 "Hg12 mi
6:00 PM72 °FSunny.1 mph67%30.33 "Hg12 mi
5:00 PM72 °FPassing clouds.1 mph70%30.33 "Hg12 mi
4:00 PM72 °FPassing clouds.2 mph76%30.34 "Hg12 mi
3:00 PM72 °FPassing clouds.5 mph70%30.34 "Hg12 mi
Weather by CustomWeather, © 2014

See weather overviewHow to use our weather pages